Terminal Aerodrome Forecast
Issued by NWS

Home | Current Version | Previous Version | Graphics & Text | Print | Product List | Glossary On
Versions: 1 2 3 4 5 6 7 8 9 10 11 12 13 14 15 16 17
261
FTUS43 KABR 301533 AAA
TAFMBG
TAF AMD
KMBG 301533Z 3016/0112 05017G26KT P6SM OVC200
     FM010200 04007KT P6SM SKC=

USA.gov is the U.S. government's official web portal to all federal, state and local government web resources and services.